• In Portugal
  • List of Countries
  • For 7 days
  • Water Temperature
  • Satellite Maps
  • Weather Map
  • Weather Widgets
  • user-avatar
    Login

    Hourly Weather Volova Gora

    Today, 24 September, Monday

    Time Temperature Precipitation Wind Pressure Humidity
    00:00 +8°C° 0 mm 2 mps 741 mmHg 90%
    01:00 +8°C° 0 mm 2 mps 741 mmHg 92%
    02:00 +8°C° 0 mm 2 mps 740 mmHg 94%
    03:00 +8°C° 0.7 mm 2 mps 739 mmHg 95%
    04:00 +8°C° 0.7 mm 2 mps 739 mmHg 96%
    05:00 +8°C° 0.7 mm 2 mps 738 mmHg 96%
    06:00 +8°C° 2 mm 2 mps 737 mmHg 96%
    07:00 +8°C° 2 mm 3 mps 736 mmHg 96%
    08:00 +8°C° 0 mm 3 mps 735 mmHg 96%
    09:00 +7°C° 2.5 mm 4 mps 735 mmHg 95%
    10:00 +7°C° 2.5 mm 4 mps 734 mmHg 95%
    11:00 +7°C° 2.5 mm 5 mps 733 mmHg 95%
    12:00 +7°C° 1.6 mm 5 mps 734 mmHg 93%
    13:00 +7°C° 1.6 mm 6 mps 734 mmHg 92%
    14:00 +7°C° 0 mm 6 mps 734 mmHg 90%
    15:00 +7°C° 0.4 mm 6 mps 735 mmHg 89%
    16:00 +8°C° 0.4 mm 6 mps 736 mmHg 88%
    17:00 +8°C° 0.4 mm 6 mps 736 mmHg 87%
    18:00 +7°C° 0.2 mm 5 mps 737 mmHg 88%
    19:00 +7°C° 0.2 mm 5 mps 738 mmHg 89%
    20:00 +7°C° 0.2 mm 5 mps 738 mmHg 91%
    21:00 +7°C° 0 mm 5 mps 739 mmHg 91%
    22:00 +6°C° 0 mm 5 mps 739 mmHg 91%
    23:00 +6°C° 0 mm 5 mps 740 mmHg 91%

    Tomorrow, 25 September, Tuesday

    Time Temperature Precipitation Wind Pressure Humidity
    00:00 +5°C° 0 mm 5 mps 741 mmHg 91%
    01:00 +5°C° 0 mm 5 mps 741 mmHg 91%
    02:00 +5°C° 0 mm 5 mps 742 mmHg 91%
    03:00 +3°C° 0 mm 5 mps 743 mmHg 92%
    04:00 +3°C° 0 mm 5 mps 743 mmHg 92%
    05:00 +2°C° 0 mm 5 mps 744 mmHg 93%
    06:00 +3°C° 0 mm 5 mps 744 mmHg 90%
    07:00 +3°C° 0 mm 6 mps 745 mmHg 87%
    08:00 +3°C° 0 mm 6 mps 745 mmHg 84%
    09:00 +5°C° 0 mm 6 mps 746 mmHg 77%
    10:00 +7°C° 0 mm 6 mps 747 mmHg 71%
    11:00 +8°C° 0 mm 7 mps 747 mmHg 64%
    12:00 +8°C° 0.1 mm 7 mps 748 mmHg 61%
    13:00 +9°C° 0.1 mm 7 mps 748 mmHg 57%
    14:00 +9°C° 0.1 mm 7 mps 749 mmHg 54%
    15:00 +8°C° 0.1 mm 6 mps 749 mmHg 57%
    16:00 +8°C° 0.1 mm 5 mps 750 mmHg 61%
    17:00 +7°C° 0.1 mm 4 mps 750 mmHg 64%
    18:00 +6°C° 0 mm 4 mps 751 mmHg 65%
    19:00 +5°C° 0 mm 4 mps 752 mmHg 67%
    20:00 +4°C° 0 mm 4 mps 752 mmHg 68%
    21:00 +4°C° 0 mm 4 mps 753 mmHg 68%
    22:00 +3°C° 0 mm 4 mps 754 mmHg 68%
    23:00 +1°C° 0 mm 4 mps 754 mmHg 68%

    Day after tomorrow, 26 September, Wednesday

    Time Temperature Precipitation Wind Pressure Humidity
    00:00 +2°C° 0 mm 3 mps 755 mmHg 72%
    01:00 +2°C° 0 mm 3 mps 755 mmHg 76%
    02:00 +2°C° 0 mm 3 mps 756 mmHg 80%
    03:00 +1°C° 0 mm 3 mps 756 mmHg 84%
    04:00 +1°C° 0 mm 3 mps 756 mmHg 88%
    05:00 +1°C° 0 mm 3 mps 757 mmHg 92%
    06:00 +2°C° 0 mm 3 mps 757 mmHg 87%
    07:00 +3°C° 0 mm 4 mps 757 mmHg 82%
    08:00 +4°C° 0 mm 4 mps 757 mmHg 77%
    09:00 +6°C° 0 mm 4 mps 757 mmHg 69%
    10:00 +8°C° 0 mm 5 mps 757 mmHg 61%
    11:00 +9°C° 0 mm 5 mps 757 mmHg 53%
    12:00 +10°C° 0 mm 5 mps 756 mmHg 53%
    13:00 +10°C° 0 mm 6 mps 755 mmHg 53%
    14:00 +11°C° 0 mm 6 mps 755 mmHg 53%
    15:00 +10°C° 0 mm 6 mps 754 mmHg 57%
    16:00 +9°C° 0 mm 6 mps 753 mmHg 61%
    17:00 +8°C° 0 mm 6 mps 753 mmHg 66%
    18:00 +8°C° 0.4 mm 6 mps 752 mmHg 71%
    19:00 +7°C° 0.4 mm 6 mps 751 mmHg 77%
    20:00 +6°C° 0.4 mm 7 mps 751 mmHg 83%
    21:00 +6°C° 0.5 mm 7 mps 750 mmHg 84%
    22:00 +6°C° 0.5 mm 8 mps 749 mmHg 86%
    23:00 +6°C° 0.5 mm 8 mps 748 mmHg 87%

    27 September, Thursday

    Time Temperature Precipitation Wind Pressure Humidity
    00:00 +6°C° 0.5 mm 8 mps 747 mmHg 87%
    01:00 +6°C° 0.5 mm 8 mps 746 mmHg 88%
    02:00 +6°C° 0.5 mm 8 mps 745 mmHg 88%
    03:00 +6°C° 0.3 mm 8 mps 745 mmHg 89%
    04:00 +7°C° 0.3 mm 8 mps 744 mmHg 89%
    05:00 +7°C° 0.3 mm 8 mps 744 mmHg 90%
    06:00 +9°C° 0.3 mm 7 mps 744 mmHg 90%
    07:00 +9°C° 0.3 mm 6 mps 744 mmHg 91%
    08:00 +10°C° 0.3 mm 6 mps 744 mmHg 92%
    09:00 +12°C° 0.2 mm 5 mps 744 mmHg 87%
    10:00 +13°C° 0.2 mm 5 mps 745 mmHg 82%
    11:00 +14°C° 0.2 mm 5 mps 745 mmHg 77%
    12:00 +14°C° 0.1 mm 5 mps 745 mmHg 72%
    13:00 +15°C° 0.1 mm 5 mps 745 mmHg 67%
    14:00 +15°C° 0.1 mm 6 mps 745 mmHg 62%
    15:00 +15°C° 0.1 mm 5 mps 745 mmHg 66%
    16:00 +14°C° 0.1 mm 4 mps 745 mmHg 70%
    17:00 +13°C° 0.1 mm 3 mps 745 mmHg 73%
    18:00 +12°C° 0 mm 3 mps 746 mmHg 78%
    19:00 +11°C° 0 mm 3 mps 746 mmHg 82%
    20:00 +10°C° 0 mm 3 mps 746 mmHg 87%
    21:00 +9°C° 0 mm 3 mps 746 mmHg 88%
    22:00 +9°C° 0 mm 3 mps 746 mmHg 89%
    23:00 +9°C° 0 mm 3 mps 746 mmHg 91%

    28 September, Friday

    Time Temperature Precipitation Wind Pressure Humidity
    00:00 +10°C° 0 mm 4 mps 745 mmHg 91%
    01:00 +9°C° 0 mm 5 mps 745 mmHg 92%
    02:00 +10°C° 0 mm 6 mps 744 mmHg 92%
    03:00 +11°C° 0.1 mm 7 mps 743 mmHg 90%
    04:00 +12°C° 0.1 mm 8 mps 742 mmHg 87%
    05:00 +12°C° 0.1 mm 8 mps 741 mmHg 84%
    06:00 +13°C° 0.1 mm 9 mps 741 mmHg 83%
    07:00 +13°C° 0.1 mm 9 mps 740 mmHg 82%
    08:00 +13°C° 0.1 mm 9 mps 740 mmHg 81%
    09:00 +13°C° 0.4 mm 9 mps 740 mmHg 79%
    10:00 +13°C° 0.4 mm 9 mps 741 mmHg 77%
    11:00 +13°C° 0.4 mm 9 mps 741 mmHg 75%
    12:00 +12°C° 0.1 mm 9 mps 742 mmHg 72%
    13:00 +12°C° 0.1 mm 8 mps 743 mmHg 69%
    14:00 +11°C° 0.1 mm 7 mps 744 mmHg 67%
    15:00 +10°C° 0 mm 6 mps 745 mmHg 68%
    16:00 +10°C° 0 mm 4 mps 745 mmHg 70%
    17:00 +9°C° 0 mm 3 mps 746 mmHg 71%
    18:00 +8°C° 0 mm 2 mps 747 mmHg 76%
    19:00 +7°C° 0 mm 2 mps 747 mmHg 80%
    20:00 +7°C° 0 mm 1 mps 748 mmHg 85%
    21:00 +7°C° 0 mm 1 mps 748 mmHg 85%
    22:00 +6°C° 0 mm 1 mps 748 mmHg 86%
    23:00 +6°C° 0 mm 1 mps 748 mmHg 87%

    29 September, Saturday

    Time Temperature Precipitation Wind Pressure Humidity
    00:00 +6°C° 0 mm 1 mps 748 mmHg 87%
    01:00 +5°C° 0 mm 2 mps 748 mmHg 86%
    02:00 +5°C° 0 mm 2 mps 749 mmHg 86%
    03:00 +5°C° 0 mm 2 mps 749 mmHg 85%
    04:00 +5°C° 0 mm 2 mps 749 mmHg 85%
    05:00 +6°C° 0 mm 2 mps 749 mmHg 84%
    06:00 +6°C° 0 mm 2 mps 749 mmHg 84%
    07:00 +6°C° 0 mm 2 mps 749 mmHg 84%
    08:00 +7°C° 0 mm 2 mps 750 mmHg 84%
    09:00 +7°C° 0 mm 2 mps 750 mmHg 81%
    10:00 +8°C° 0 mm 2 mps 751 mmHg 77%
    11:00 +8°C° 0 mm 2 mps 751 mmHg 74%
    12:00 +9°C° 0 mm 2 mps 751 mmHg 69%
    13:00 +9°C° 0 mm 3 mps 751 mmHg 65%
    14:00 +10°C° 0 mm 3 mps 751 mmHg 60%
    15:00 +9°C° 0 mm 2 mps 751 mmHg 61%
    16:00 +9°C° 0 mm 2 mps 752 mmHg 63%
    17:00 +8°C° 0 mm 2 mps 752 mmHg 64%
    18:00 +8°C° 0 mm 1 mps 752 mmHg 67%
    19:00 +7°C° 0 mm 1 mps 753 mmHg 69%
    20:00 +5°C° 0 mm 1 mps 753 mmHg 72%
    21:00 +5°C° 0 mm 1 mps 753 mmHg 72%
    22:00 +5°C° 0 mm 1 mps 753 mmHg 73%
    23:00 +3°C° 0 mm 0 mps 754 mmHg 73%
    Show more